This demonstration page uses our WeatherBlox Daily Observations layout. Learn more.

Left ArrowRight Arrow

30.21309, -93.2044

Hourly Observations for August 19, 2022

Temp ( °F °C ) Dew Point ( °F °C ) Humidity (%) Winds ( mph kmh ) Pressure ( in mb ) Visibility ( mi km ) Precip ( " mm )
12:15 am 00:15 Mostly Cloudy 76 24.6 74 23.2 92 92 NE 5 7 29.95 1014 10 16 0.00 0.00
12:35 am 00:35 Mostly Cloudy 76 24.3 74 23.1 93 93 ENE 5 7 29.94 1014 7 11 0.00 0.00
12:55 am 00:55 Partly Cloudy 75 24.1 73 22.9 93 93 NE 5 7 29.93 1014 10 16 0.00 0.00
1:15 am 01:15 Clear 75 24 73 22.8 93 93 NNE 7 11 29.94 1014 10 16 0.00 0.00
1:35 am 01:35 Partly Cloudy 75 24 73 22.8 93 93 ENE 6 9 29.93 1014 10 16 0.00 0.00
1:55 am 01:55 Partly Cloudy 75 23.9 73 22.7 93 93 ENE 7 11 29.93 1014 10 16 0.00 0.00
2:15 am 02:15 Clear with Light Rain 75 23.9 73 22.6 92 92 ENE 6 9 29.92 1013 10 16 0.00 0.00
2:35 am 02:35 Clear 75 23.9 73 22.6 92 92 ENE 3 6 29.92 1013 10 16 0.00 0.00
2:55 am 02:55 Clear 75 23.8 73 22.6 93 93 N 3 6 29.93 1014 10 16 0.00 0.00
3:15 am 03:15 Partly Cloudy 75 23.8 73 22.6 93 93 Calm 29.93 1014 10 16 0.00 0.00
3:35 am 03:35 Partly Cloudy 75 23.8 73 22.6 93 93 Calm 29.93 1014 10 16 0.00 0.00
3:55 am 03:55 Partly Cloudy 75 23.7 73 22.6 94 94 Calm 29.93 1014 10 16 0.00 0.00
4:15 am 04:15 Clear 75 23.7 73 22.7 94 94 Calm 29.92 1013 7 11 0.00 0.00
4:35 am 04:35 Clear 75 23.8 73 22.7 94 94 Calm 29.92 1013 10 16 0.00 0.00
4:55 am 04:55 Partly Cloudy 75 23.8 73 22.7 94 94 Calm 29.93 1014 10 16 0.00 0.00
5:15 am 05:15 Cloudy 75 23.8 73 22.7 94 94 Calm 29.93 1014 7 11 0.00 0.00
5:35 am 05:35 Partly Cloudy with Nearby Thunderstorms 75 23.8 73 22.7 94 94 N 3 6 29.92 1013 7 11 0.00 0.00
6:00 am 06:00 Partly Cloudy with Thunderstorms 75 24 73 23 94 94 NNE 7 11 29.92 1013 7 11 0.00 0.00
6:50 am 06:50 Mostly Cloudy with Mist and Fog 75 24 73 23 94 94 Calm 29.95 1014 4 6 0.00 0.00
7:46 am 07:46 Mostly Cloudy with Mist and Fog 75 24 73 23 94 94 Calm 29.96 1015 5 8 0.00 0.00
8:55 am 08:55 Mostly Cloudy with Mist and Fog 77 25 73 23 89 89 S 6 9 29.98 1015 6 10 0.00 0.00
9:55 am 09:55 Mostly Cloudy with Mist and Fog 79 26 73 23 84 84 S 7 11 29.99 1016 6 10 0.00 0.00
10:50 am 10:50 Mostly Cloudy 81 27 73 23 79 79 SSE 3 6 29.99 1016 7 11 0.00 0.00
11:53 am 11:53 Partly Cloudy 84 29 72 22 66 66 Calm 29.97 1015 10 16 0.00 0.00
12:55 pm 12:55 Partly Cloudy 86 30 72 22 62 62 Calm 29.97 1015 10 16 0.00 0.00
1:55 pm 13:55 Partly Cloudy 88 31 72 22 59 59 SSW 12 19 29.96 1014 10 16 0.00 0.00
2:53 pm 14:53 Partly Cloudy 88 31 72 22 59 59 WSW 9 15 29.95 1014 10 16 0.00 0.00
3:47 pm 15:47 Partly Cloudy 88 31 72 22 59 59 WSW 14 22 29.94 1014 10 16 0.00 0.00
4:55 pm 16:55 Partly Cloudy 84 29 73 23 70 70 SSW 15 24 29.94 1014 10 16 0.00 0.00
5:55 pm 17:55 Mostly Sunny 82 28 70 21 66 66 SSW 8 13 29.93 1013 10 16 0.00 0.00
6:52 pm 18:52 Mostly Sunny 81 27 70 21 70 70 SSW 7 11 29.93 1013 10 16 0.00 0.00
7:55 pm 19:55 Mostly Clear 79 26 73 23 84 84 S 6 9 29.94 1014 10 16 0.00 0.00
8:55 pm 20:55 Mostly Clear 75 24 72 22 89 89 S 5 7 29.96 1015 10 16 0.00 0.00
9:45 pm 21:45 Mostly Clear 75 24 72 22 89 89 Calm 29.98 1015 10 16 0.00 0.00
10:15 pm 22:15 Clear 75 23.8 72 22.3 91 91 SE 5 7 29.98 1015 10 16 0.00 0.00
10:35 pm 22:35 Clear 75 23.9 72 22.4 91 91 ESE 5 7 29.99 1016 10 16 0.00 0.00
10:55 pm 22:55 Clear 75 24 73 22.5 91 91 SE 3 6 29.99 1016 10 16 0.00 0.00
11:15 pm 23:15 Clear 75 23.9 73 22.5 92 92 SE 3 6 29.99 1016 10 16 0.00 0.00
11:35 pm 23:35 Clear 75 23.7 72 22.4 92 92 SE 3 6 29.99 1016 10 16 0.00 0.00
11:55 pm 23:55 Clear 74 23.5 72 22.2 92 92 ESE 5 7 29.99 1016 10 16 0.00 0.00

Powered by AerisWeather